Regional Weather Roundup
Issued by NWS Huntsville, AL

Home | Current Version | Previous Version | Text Only | Print | Product List | Glossary On
Versions: 1 2 3 4 5 6 7 8 9 10 11 12 13 14 15 16 17 18 19 20 21 22 23 24 25 26 27 28 29 30 31 32 33 34 35 36 37 38 39 40 41 42 43 44 45 46 47 48 49 50
000
ASUS44 KHUN 070310
RWRHUN

WEATHER ROUNDUP FOR THE TENNESSEE VALLEY
NATIONAL WEATHER SERVICE HUNTSVILLE AL
900 PM CST SAT FEB 06 2016

ALZ001>004-070400-
NORTHWEST ALABAMA

CITY           SKY/WX    TMP DP  RH WIND       PRES   REMARKS
COURTLAND HCN    N/A     34 N/A N/A CALM        N/A
RUSSELLVILLE     N/A     32 N/A N/A MISG        N/A
SHOALS AIRPORT PTCLDY    38  27  64 CALM      30.32R
SHOALS TVA RES   N/A     36 N/A N/A MISG        N/A
$$

ALZ005>007-016-070400-
NORTH CENTRAL ALABAMA

CITY           SKY/WX    TMP DP  RH WIND       PRES   REMARKS
DECATUR AP     PTCLDY    36  30  79 CALM      30.30S
HUNTSVILLE AP  PTCLDY    38  25  59 NW3       30.29R
HUN NWS/UAH      N/A     39  22  49 NW1         N/A
MERIDIANVILLE  PTCLDY    36  28  75 CALM      30.29R
REDSTONE ARSN  PTCLDY    36  23  59 CALM      30.29R
VINEMONT AP    FAIR      30  22  70 CALM      30.29F
$$

ALZ008>010-070400-
NORTHEAST ALABAMA

CITY           SKY/WX    TMP DP  RH WIND       PRES   REMARKS
ALBERTVILLE    PTCLDY    37  27  65 NW5       30.26S WCI  34
FORT PAYNE     CLEAR     30  21  69 CALM      30.27R
SCOTTSBORO AP  CLOUDY    34  25  69 CALM      30.29S
SCOTTSBORO HCN   N/A     32 N/A N/A MISG        N/A
VALLEY HEAD      N/A     30 N/A N/A MISG        N/A
$$

TNZ076-096-097-070400-
SOUTHEASTERN MIDDLE TENNESSEE

CITY           SKY/WX    TMP DP  RH WIND       PRES   REMARKS
TULLAHOMA      CLEAR     32  28  86 CALM      30.28S
WINCHESTER     PTCLDY    32  27  80 CALM      30.28S
$$

...SURROUNDING SITES...

CITY           SKY/WX    TMP DP  RH WIND       PRES   REMARKS
ATLANTA        PTCLDY    42  19  39 NW5       30.21F
ANNISTON       CLEAR     33  26  75 W3        30.27R
BIRMINGHAM     CLEAR     35  25  66 CALM      30.30R
CHATTANOOGA    MOCLDY    40  20  44 CALM      30.27F
DALTON         NOT AVBL
GADSDEN        CLEAR     30  25  81 CALM      30.29R
GOLDEN TRNGL   CLEAR     39  25  56 N3        30.31R
HALEYVILLE     FAIR      34  27  75 CALM      30.31S
JACKSON TN     CLEAR     31  25  78 SW5       30.30F WCI  26
MEMPHIS        PTCLDY    40  24  53 CALM      30.31S
NASHVILLE      PTCLDY    37  23  56 S5        30.29F WCI  33
OXFORD MS      FAIR      32  25  74 CALM      30.33S
ROME             N/A    N/A N/A N/A MISG      30.26R
TUPELO         CLEAR     38  23  55 CALM      30.32S
TUSCALOOSA     CLEAR     38  23  55 N8        30.31R WCI  32
$$

...GULF COAST WEATHER...

CITY           SKY/WX    TMP DP  RH WIND       PRES   REMARKS
GULFPORT       MOCLDY    45  35  68 CALM      30.28R
PASCAGOULA     PTCLDY    39  36  89 CALM      30.28R
MOBILE         PTCLDY    46  25  43 N7        30.27S
GULF SHORES    CLEAR     43  26  50 CALM      30.25F
PENSACOLA      CLEAR     43  24  47 N6        30.24R
DESTIN         MOCLDY    50  27  40 N10       30.24R
PANAMA CITY    CLOUDY    49  32  52 CALM      30.22R
APPALACHICOLA  CLOUDY    46  36  68 NE6       30.20S
$$




USA.gov is the U.S. government's official web portal to all federal, state and local government web resources and services.